Haines, AK

5:24 AM AKST on February 22, 2017 (GMT -0900)
Haines

Weather History for PAHN - September, 2013

Change the Weather History Date:

Sunday, September 29, 2013

  Actual Average Record
Temperature  
Mean Temperature 49 °F -  
Max Temperature 52 °F 50 °F 67 °F (1989)
Min Temperature 46 °F 40 °F 27 °F (1974)
Degree Days  
Heating Degree Days 16    
Moisture  
Dew Point 44 °F    
Average Humidity 85    
Maximum Humidity 100    
Minimum Humidity 69    
Precipitation  
Precipitation 0.01 in - - ()
Sea Level Pressure  
Sea Level Pressure 29.06 in    
Wind  
Wind Speed 12 mph (NW)    
Max Wind Speed 16 mph    
Max Gust Speed 17 mph    
Visibility 10 miles    
Events Rain    
Averages and records for this station are not official NWS values.
T = Trace of Precipitation, MM = Missing Value Source: NWS Daily Summary

Daily Weather History Graph

Daily Weather History Graph

Search for Another Location

Airport or City:

Trip Planner

Search our weather history database for the weather conditions in past years. The results will help you decide how hot, cold, wet, or windy it might be!

Date:

Astronomy

Sep. 29, 2013 Rise Set
Actual Time 7:03 AM AKDT 6:39 PM AKDT
Civil Twilight 6:22 AM AKDT 7:20 PM AKDT
Nautical Twilight 5:35 AM AKDT 8:07 PM AKDT
Astronomical Twilight 4:44 AM AKDT 8:57 PM AKDT
Moon 12:48 AM AKDT (9/29) 4:35 PM AKDT (9/29)
Length of Visible Light 12h 57m
Length of Day
11h 36m
Waning Crescent, 26% of the Moon is Illuminated
Sep 29
Waning Crescent
Oct 4
New
Oct 11
First Quarter
Oct 18
Full
Oct 26
Last Quarter

Hourly Weather History & Observations

Time (AKDT) Temp. Windchill Dew Point Humidity Pressure Visibility Wind Dir Wind Speed Gust Speed Precip Events Conditions
12:54 AM 46.9 °F - 45.0 °F 93% 28.99 in 10.0 mi WNW 11.5 mph - 0.00 in   Overcast
1:54 AM 46.9 °F - 45.0 °F 93% 28.99 in 10.0 mi WNW 13.8 mph - N/A   Overcast
2:07 AM 46.4 °F 40.7 °F 46.4 °F 100% 28.98 in 10.0 mi WNW 12.7 mph - N/A   Overcast
2:54 AM 48.0 °F - 45.0 °F 89% 29.00 in 10.0 mi NW 11.5 mph - N/A   Overcast
3:54 AM 46.9 °F - 45.0 °F 93% 28.99 in 10.0 mi WNW 12.7 mph - N/A   Mostly Cloudy
4:54 AM 46.9 °F - 44.1 °F 90% 28.99 in 10.0 mi WNW 13.8 mph - 0.01 in   Partly Cloudy
5:54 AM 46.9 °F - 44.1 °F 90% 29.00 in 10.0 mi WNW 12.7 mph - N/A   Mostly Cloudy
6:54 AM 46.0 °F 39.3 °F 44.1 °F 93% 29.00 in 10.0 mi WNW 16.1 mph - N/A   Scattered Clouds
7:54 AM 46.0 °F 39.9 °F 44.1 °F 93% 29.01 in 10.0 mi WNW 13.8 mph - N/A   Overcast
8:54 AM 46.0 °F 40.2 °F 44.1 °F 93% 29.02 in 10.0 mi WNW 12.7 mph - 0.00 in Rain Light Rain
9:54 AM 46.0 °F 39.9 °F 44.1 °F 93% 29.03 in 10.0 mi WNW 13.8 mph - 0.00 in   Overcast
10:54 AM 48.0 °F - 44.1 °F 86% 29.04 in 10.0 mi WNW 10.4 mph - N/A   Overcast
11:54 AM 51.1 °F - 42.1 °F 71% 29.05 in 10.0 mi NNW 8.1 mph 17.3 mph 0.00 in Rain Light Rain
12:54 PM 51.1 °F - 42.1 °F 71% 29.06 in 10.0 mi NNW 8.1 mph - 0.00 in Rain Light Rain
1:54 PM 52.0 °F - 43.0 °F 71% 29.07 in 10.0 mi NW 9.2 mph - 0.00 in   Overcast
2:54 PM 52.0 °F - 43.0 °F 71% 29.08 in 10.0 mi NW 11.5 mph - N/A   Overcast
3:54 PM 52.0 °F - 42.1 °F 69% 29.10 in 10.0 mi NW 10.4 mph - N/A   Overcast
4:54 PM 51.1 °F - 44.1 °F 77% 29.11 in 10.0 mi NW 8.1 mph - N/A   Mostly Cloudy
5:54 PM 50.0 °F - 46.9 °F 89% 29.12 in 10.0 mi WNW 11.5 mph - N/A   Overcast
6:54 PM 50.0 °F - 44.1 °F 80% 29.13 in 10.0 mi WNW 10.4 mph - N/A   Mostly Cloudy
7:54 PM 51.1 °F - 43.0 °F 74% 29.14 in 10.0 mi NW 9.2 mph - N/A   Mostly Cloudy
8:54 PM 48.9 °F - 45.0 °F 86% 29.15 in 10.0 mi NW 8.1 mph - N/A   Overcast
9:54 PM 48.9 °F - 45.0 °F 86% 29.16 in 10.0 mi WNW 12.7 mph - N/A   Overcast
10:54 PM 48.0 °F - 45.0 °F 89% 29.17 in 10.0 mi WNW 11.5 mph - N/A   Mostly Cloudy
11:54 PM 48.0 °F - 45.0 °F 89% 29.19 in 10.0 mi WNW 13.8 mph - N/A   Overcast